sat.trackr.live / text

‹ back to catalog

STARLINK-35675

NORAD 67188 · 2025-303AB

PAYLOAD ACTIVE UNKNOWN

§ Identity

Operator
Country
US
Launch date
2025-12-17
Launch site
AFETR
Launch vehicle
Mass (kg)
RCS (m²)

Purposes: comms

External: N2YO · Heavens-Above · Gunter

§ Orbital elements

Epoch: 2026-09-19T18:43:29.578944Z

Period
94.27 min
Inclination
42.9993°
Eccentricity
0.0001623
Mean motion
15.27588000 rev/d
Perigee alt
481.9 km
Apogee alt
484.1 km
Semi-major
6,861.2 km
B*
4.7872e-4
RAAN
295.0327°
Arg perigee
282.0340°
Mean anomaly
78.0330°
Rev number
4,241

§ Raw data

STARLINK-356751 67188U 25303AB  26262.78020346  .00012938  00000+0  47872-3 0  99942 67188  42.9993 295.0327 0001623 282.0340  78.0330 15.27588000 42415

JSON: /api/v1/satellites/67188 · /tle

For live sub-satellite position, see the globe view (requires WebGL).

§ Visibility from observer

Set your observer location to see the next 7 days of passes ≥ 10°. The values pass through the URL so the page stays shareable.

No JS? Fill the form by hand. The geolocation button needs JavaScript.